Regional Weather Roundup
Issued by NWS

Home | Current Version | Previous Version | Graphics & Text | Print | Product List | Glossary On
Versions: 1 2 3 4 5 6 7 8 9 10 11 12 13 14 15 16 17 18 19 20 21 22 23 24 25 26 27 28 29 30 31 32 33 34 35 36 37 38 39 40 41 42 43 44 45 46 47 48 49 50
000
ASUS43 KMKX 202000
RWRWI

WISCONSIN REGIONAL WEATHER ROUNDUP
NATIONAL WEATHER SERVICE MILWAUKEE/SULLIVAN WI
300 PM CDT WED SEP 20 2017

NOTE: "FAIR" INDICATES FEW OR NO CLOUDS BELOW 12,000 FEET WITH NO
SIGNIFICANT WEATHER AND/OR OBSTRUCTIONS TO VISIBILITY.

WIZ001-002-006>008-014>016-023>028-202100-
NORTHWEST WISCONSIN

CITY           SKY/WX    TMP DP  RH WIND       PRES   REMARKS
SUPERIOR ARPT  PTSUNNY   74  57  56 W10G18    29.76R
ASHLAND        CLOUDY    74  62  66 SW15G24   29.76R
HAYWARD        CLOUDY    72  60  66 SW7       29.79S
SIREN          MOSUNNY   75  55  50 NW12      29.79R
CUMBERLAND     MOSUNNY   72  54  53 W10G17    29.81R
RICE LAKE      CLOUDY    73  57  58 W7        29.81S
CHETEK         CLOUDY    71  61  71 W3        29.80R
LADYSMITH      CLOUDY    76  68  76 S5        29.79S
EAU CLAIRE     PTSUNNY   76  64  66 W12       29.78R
MENOMONIE      CLOUDY    73  61  66 W9G16     29.81R
NEW RICHMOND   SUNNY     75  53  46 W10       29.82R
OSCEOLA        SUNNY     75  55  49 W8        29.84R
$$

WIZ003>005-009-010-017-018-202100-
NORTH CENTRAL WISCONSIN

CITY           SKY/WX    TMP DP  RH WIND       PRES   REMARKS
MANITOWISH WTR CLOUDY    66  66 100 S10       29.81R
ARBOR VITAE    CLOUDY    68  66  92 S9        29.81S
WOODRUFF       CLOUDY    68  66  92 S9        29.81S
RHINELANDER    CLOUDY    68  67  96 S7        29.83S FOG
EAGLE RIVER    CLOUDY    67  65  95 S7        29.82S FOG
LAND O LAKES   CLOUDY    67  64  90 S7        29.83S FOG
PHILLIPS       CLOUDY    68  67  97 S6        29.80S
TOMAHAWK         N/A     68  65  89 CALM      29.82S
MEDFORD        CLOUDY    71  66  85 S12       29.81S
MERRILL        CLOUDY    70  70 100 CALM      29.82S
$$

WIZ029-030-035-036-043>047-202100-
CENTRAL WISCONSIN

CITY           SKY/WX    TMP DP  RH WIND       PRES   REMARKS
WAUSAU         CLOUDY    73  68  84 S7        29.80R
MOSINEE        CLOUDY    73  70  88 S6        29.83R
MARSHFIELD     RAIN      73  68  84 SE5       29.79F
STEVENS POINT  CLOUDY    76  69  80 CALM      29.81R
WAUPACA        PTSUNNY   86  69  56 SE12      29.78F HX  90
WAUTOMA        PTSUNNY   86  72  62 S14       29.77F HX  92
WISC RAPIDS    CLOUDY    79  70  74 SW6       29.81R HX  82
CAMP DOUGLAS   NOT AVBL
$$

WIZ011>013-019>022-031-037>040-048>050-202100-
NORTHEAST WISCONSIN

CITY           SKY/WX    TMP DP  RH WIND       PRES   REMARKS
ANTIGO         CLOUDY    69  68  95 SE6       29.84R
SHAWANO        MOSUNNY   82  68  62 S12       29.79S HX  84
OCONTO         SUNNY     76  66  69 S13       29.81F
STURGEON BAY   CLOUDY    75  65  70 S18G31    29.83F
GREEN BAY      SUNNY     81  68  64 S15G24    29.81F HX  84
MANITOWOC      CLOUDY    73  66  78 S25G32    29.85F
APPLETON       MOSUNNY   81  64  57 SE15G24   29.79F HX  82
CLINTONVILLE   MOSUNNY   81  64  57 S15G22    29.78F HX  82
OSHKOSH        SUNNY     84  70  62 SE17      29.79S HX  88
$$

WIZ032>034-041-042-053>061-202100-
SOUTHWEST WISCONSIN

CITY           SKY/WX    TMP DP  RH WIND       PRES   REMARKS
LA CROSSE      CLOUDY    83  70  64 W6        29.76S HX  87
SPARTA         CLOUDY    80  70  71 S3        29.78F HX  83
VIROQUA        CLOUDY    80  71  75 S6        29.81S HX  83
BOSCOBEL       CLOUDY    87  70  56 VRB5      29.78R HX  92
PRAIRIE DU CHI CLOUDY    85  67  56 S5        29.77S HX  87
PLATTEVILLE    MOSUNNY   87  71  58 S14       29.80S HX  92
$$

WIZ056-057-062-063-064-067-068-202100-
SOUTH CENTRAL WISCONSIN

CITY           SKY/WX    TMP DP  RH WIND       PRES   REMARKS
REEDSBURG      PTSUNNY   87  70  58 S15G21    29.78S HX  92
BARABOO/DELLS  NOT AVBL
LONE ROCK      NOT AVBL
MINERAL POINT  SUNNY     90  72  55 S14G22    29.80S HX  96
MADISON        MOSUNNY   90  70  51 S16G25    29.78F HX  95
MIDDLETON      MOSUNNY   91  69  48 S16G22    29.79F HX  95
WATERTOWN      MOSUNNY   89  69  51 S17G24    29.80F HX  94
MONROE         SUNNY     88  68  51 S15G25    29.80F HX  91
JANESVILLE     MOSUNNY   91  66  43 S17G26    29.81F HX  94
$$

WIZ051-052-058>065-066-070>072-202100-
SOUTHEAST WISCONSIN

CITY           SKY/WX    TMP DP  RH WIND       PRES   REMARKS
MILWAUKEE      MOSUNNY   82  69  64 SE15      29.84F HX  85
WAUKESHA       MOSUNNY   86  66  51 S13G24    29.85F HX  88
MILWAUKEE/TIMM SUNNY     81  64  57 SE7       29.85F HX  82
RACINE         SUNNY     80  69  69 SE14G23   29.87F HX  83
BURLINGTON     SUNNY     91  69  49 S9G21     29.84F HX  96
KENOSHA        SUNNY     87  69  54 SE15      29.85F HX  91
FOND DU LAC    SUNNY     85  67  54 SE15G26   29.79F HX  87
SHEBOYGAN      SUNNY     75  69  81 SE16G25   29.85F
WEST BEND        N/A     77  68  73 SE15      29.84F
JUNEAU         SUNNY     87  69  55 S22G28    29.82F HX  90
$$

LSZ147-162-202100-
LAKE SUPERIOR

STATION/POSITION TIME  TEMP    WIND        PRES    WAVE
                       AIR SEA DIR/SP/G            HT/PER
                 (UTC) (F)     (DEG/KT/KT) (MB)    (FT/S)
W MID LAKE BUOY  1850   60 54  200/  6/  8 1006.1S   3/ 4
DEVILS ISLAND    1900   67     240/ 12/ 15 1005.8R
PORT WING        1840   76     250/ 11/ 16 1006.8
SAXON HARBOR     1930   75     180/  5/ 17 1006.4S
$$

LMZ867-665-643>646-202100-
LAKE MICHIGAN

STATION/POSITION TIME  TEMP    WIND        PRES    WAVE
                       AIR SEA DIR/SP/G            HT/PER
                 (UTC) (F)     (DEG/KT/KT) (MB)    (FT/S)
S GREEN BAY BUOY 1930   71 66  160/ 19/ 25 1009.3F
N MID LAKE BUOY  1850   65 65  140/  8/ 10 1011.7F   1/ 4
NORTHPORT PIER   1940   68     150/ 11/ 17 1010.5F
KEWAUNEE LAKESHO 1930   63     180/ 10/ 12 1010.3F
SHEBOYGAN LAKESH 1900   66     150/ 17/ 18 1011.0F
PORT WASHINGTON  1940   73     170/  8/ 11 1011.9F
ATWATER BUOY     1809   69 68  160/ 16/ 17 1012.1F
MILWAUKEE LAKESH 1930   69     150/ 15/ 16   N/A
S MID LAKE BUOY  1850   71 69  110/ 12/ 14 1012.8F   2/ 4
KENOSHA   LAKESH 1900   72     170/ 12/ 15 1011.5
$$

TC  - TEMPERATURE IN CELSIUS
VSB - VISIBILITY IN STATUTE MILES
WCI - WIND CHILL INDEX
HX  - HEAT INDEX





USA.gov is the U.S. government's official web portal to all federal, state and local government web resources and services.